Cuero, Texas, United States (77954)
Lat: 29.09N, Lon: 97.29W
Wx Zone: TXZ224
Local Info
Past Weather Observations for Today

NOTE: This archive is for the closest National Weather Service station to Cuero. Information may differ from the station used for current weather conditions.

Time Weather Temperature Dewpoint Humidity Pressure Winds Precip Visibility
18:51
Clear
72°F / 22°C 57°F / 14°C 61% 30.09 in
(1019 mb)
SSE 9.2 mph
(SSE 15 kph)
- 10SM
17:51
Clear
75°F / 24°C 57°F / 14°C 54% 30.09 in
(1019 mb)
SE 15 mph
(SE 24 kph)
- 10SM
16:51
Clear
77°F / 25°C 57°F / 14°C 51% 30.09 in
(1019 mb)
SE 17.3 mph
(SE 28 kph)
- 10SM
15:51
Partly Cloudy
79°F / 26°C 57°F / 14°C 48% 30.09 in
(1019 mb)
SE 12.7 mph
(SE 20 kph)
- 10SM
14:51
Mostly Cloudy
81°F / 27°C 57°F / 14°C 45% 30.12 in
(1020 mb)
SSE 15 mph
(SSE 24 kph)
- 10SM
13:51
Mostly Cloudy
79°F / 26°C 57°F / 14°C 48% 30.12 in
(1020 mb)
SE 17.3 mph
(SE 28 kph)
- 10SM
12:51
Partly Cloudy
81°F / 27°C 57°F / 14°C 45% 30.15 in
(1021 mb)
SE 15 mph
(SE 24 kph)
- 10SM
11:51
Partly Cloudy
81°F / 27°C 57°F / 14°C 45% 30.15 in
(1021 mb)
SE 13.8 mph
(SE 22 kph)
- 10SM
10:51
Partly Cloudy
77°F / 25°C 59°F / 15°C 54% 30.18 in
(1022 mb)
E 10.4 mph
(E 17 kph)
- 10SM
09:51
Clear
73°F / 23°C 61°F / 16°C 65% 30.18 in
(1022 mb)
E 11.5 mph
(E 19 kph)
- 10SM
08:51
Clear
68°F / 20°C 63°F / 17°C 83% 30.18 in
(1022 mb)
NE 8.1 mph
(NE 13 kph)
- 8SM
08:28
Partly Cloudy
Fog And Mist
63°F / 17°C 63°F / 17°C 100% 30.18 in
(1022 mb)
NE 8.1 mph
(NE 13 kph)
- 5SM
08:14
Mostly Cloudy
Fog And Mist
63°F / 17°C 61°F / 16°C 94% 30.18 in
(1022 mb)
NE 5.8 mph
(NE 9 kph)
- 3SM
08:08
Mostly Cloudy
Fog And Mist
61°F / 16°C 61°F / 16°C 100% 30.18 in
(1022 mb)
NE 4.6 mph
(NE 7 kph)
- 1 1/2SM
07:51
Obscured
Fog
61°F / 16°C 59°F / 15°C 94% 30.18 in
(1022 mb)
NE 6.9 mph
(NE 11 kph)
- 1/2SM
06:51
Obscured
Fog
55°F / 13°C 54°F / 12°C 94% 30.15 in
(1021 mb)
NE 4.6 mph
(NE 7 kph)
- 1/4SM
05:51
Obscured
Fog
54°F / 12°C 54°F / 12°C 100% 30.12 in
(1020 mb)
Calm - 1/4SM
04:51
Obscured
Fog
52°F / 11°C 52°F / 11°C 100% 30.12 in
(1020 mb)
NNE 3.5 mph
(NNE 6 kph)
- 1/4SM
03:51
Obscured
Fog
54°F / 12°C 52°F / 11°C 94% 30.12 in
(1020 mb)
N 3.5 mph
(N 6 kph)
- 1/4SM
03:37
Obscured
Fog
54°F / 12°C 52°F / 11°C 94% 30.12 in
(1020 mb)
N 4.6 mph
(N 7 kph)
- 1/4SM
02:51
Obscured
Fog
52°F / 11°C 52°F / 11°C 100% 30.12 in
(1020 mb)
NW 4.6 mph
(NW 7 kph)
- 1/4SM
02:16
Obscured
Fog
54°F / 12°C 52°F / 11°C 94% 30.09 in
(1019 mb)
Calm - 1/4SM
02:09
Obscured
Fog
54°F / 12°C 54°F / 12°C 100% 30.12 in
(1020 mb)
Calm - 1/2SM
01:51
Obscured
Fog
54°F / 12°C 52°F / 11°C 94% 30.12 in
(1020 mb)
Calm - 1/4SM
01:26
Obscured
Fog
55°F / 13°C 55°F / 13°C 100% 30.12 in
(1020 mb)
Calm - 1/4SM
00:51
Obscured
Fog
55°F / 13°C 55°F / 13°C 100% 30.15 in
(1021 mb)
Calm - 1/4SM
00:41
Obscured
Fog And Mist
57°F / 14°C 57°F / 14°C 100% 30.15 in
(1021 mb)
Calm - 3/4SM
00:33
Partly Cloudy
Fog And Mist
57°F / 14°C 57°F / 14°C 100% 30.15 in
(1021 mb)
Calm - 1 1/4SM
00:24
Obscured
Fog And Mist
57°F / 14°C 57°F / 14°C 100% 30.15 in
(1021 mb)
Calm - 3/4SM
00:22
Clear
Fog And Mist
57°F / 14°C 57°F / 14°C 100% 30.15 in
(1021 mb)
Calm - 1 1/2SM
Time Weather Temperature Dewpoint Humidity Pressure Winds Precip Visibility


Weather for websites

WeatherForYou.com, LLC is not responsible for any damages or problems caused by this service. Current weather conditions are obtained from the closest station including government and personal stations which may have varying degrees of accuracy. Weather forecasts are derived from the NOAA NDFD. Like all things, this site belongs to Jesus Christ... He just trusts me to maintain it. If you have any questions or comments email webmaster@weatherforyou.com

Copyright © 2014, WeatherForYou.com LLC. All rights reserved.